NOAA 16 DEB, 41158

Orbit data source: Space-Track

NOAA 16 DEB, 41158 is space debris in SSO originally from a launch on Thu, 21 Sep 2000 UTC launched from the Air Force Western Test Range (AFWTR). Debris objects in space refer to the collection of defunct objects orbiting the Earth. Examples of debris include non-operational satellites, rocket bodies, and fragments generated from explosions, collisions, or faulty payload assembly.

Loading next visibility...
Identifier
41158, 2000-055CR
Orbit
SSO
Country
Flag of USUS
Related business
Manufacturer
Unknown
Mission
Spacecraft
Bus & Motor
Unknown
Mass
Unknown
Launch date (UTC)
2000-09-21 (25 years ago)
Launch vehicle
Unknown
Launch site
Air Force Western Test Range (AFWTR)
Object type
Payload
Rocket body
Debris
Shape & HBR
Unknown shape, 0.1 m
Radar Cross Section
Small (<0.1 m²)

Expand to show TLE details & history
Last TLE update: 2 days ago

TLE from 2 days ago
0 NOAA 16 DEB
1 41158U 00055CR  26034.87032298  .00008301  00000-0  26163-2 0  9995
2 41158  98.9554 191.2568 0012900 221.1333 138.8883 14.40543424527778
Epoch: 2026-02-03T20:53Z
TLE epoch observation values (Epoch: 2026-02-03T20:53:15.905Z)
Latitude
0.00002°
Longitude
103.89547°
Altitude
766.579 km
Speed
7.467 km/s
True Right ascension
12h 45m 01s
True Declination
0° 00' 00"
Sunlit
Object was in full shadow at epoch
Visualization orbit readout
Latitude
Unknown
Longitude
Unknown
Altitude
Unknown
Speed
Unknown
Apparent Right ascension
Unknown
Apparent Declination
Unknown
Sunlit
N/A
Visualization observer readout
Local Sidereal Time
14:08:37
Azimuth
Unknown
Elevation
Unknown
Doppler factor
Unknown
Orbital elements
Apogee altitude
763.047 km
Perigee altitude
744.647 km
Semi-major axis
7,131.984 km
Eccentricity
0.00129
Inclination
98.9554°
RAAN
191.2568°
Arg. of periapsis
221.1333°
True anomaly
138.98538°
Mean anomaly
138.8883°
Eccentric anomaly
138.93685°
Mean motion
3.60353 °/min
Orbital period
99.9 mins
BSTAR
0.0026163
Loading maneuver chart data...
Computing Atmospheric mass density...
Loading historical data...
Loading historical data...
Loading historical data...
Loading historical data...
Loading historical data...
Loading historical data...
Loading historical data...

Documentation

Showing up to 5 results
|